TimeCST,TemperatureF,Dew PointF,Humidity,Sea Level PressureIn,VisibilityMPH,Wind Direction,Wind SpeedMPH,Gust SpeedMPH,PrecipitationIn,Events,Conditions,WindDirDegrees,DateUTC
12:12 AM,15.8,15.8,100,29.96,3.0,NNE,9.2,-,N/A,Snow,Light Snow,30,2013-02-22 06:12:00
12:33 AM,17.6,15.8,93,29.96,10.0,NNE,10.4,-,N/A,Snow,Light Snow,30,2013-02-22 06:33:00
12:52 AM,17.6,15.8,93,29.95,5.0,NNE,9.2,-,N/A,Snow,Light Snow,30,2013-02-22 06:52:00
1:13 AM,17.6,15.8,93,29.95,4.0,NNE,11.5,-,N/A,Snow,Light Snow,30,2013-02-22 07:13:00
1:33 AM,17.6,15.8,93,29.94,4.0,NNE,10.4,16.1,N/A,Snow,Light Snow,30,2013-02-22 07:33:00
1:52 AM,17.6,15.8,93,29.93,4.0,NNE,10.4,-,N/A,Snow,Light Snow,20,2013-02-22 07:52:00
2:13 AM,17.6,15.8,93,29.93,2.0,NNE,11.5,-,N/A,Snow,Light Snow,30,2013-02-22 08:13:00
2:33 AM,17.6,15.8,93,29.92,3.0,North,10.4,-,N/A,Snow,Light Snow,10,2013-02-22 08:33:00
2:52 AM,17.6,15.8,93,29.92,1.2,North,12.7,-,N/A,Snow,Light Snow,10,2013-02-22 08:52:00
3:33 AM,17.6,15.8,93,29.89,2.0,North,11.5,-,N/A,Snow,Light Snow,10,2013-02-22 09:33:00
3:52 AM,17.6,15.8,93,29.88,3.0,North,12.7,-,N/A,Snow,Light Snow,10,2013-02-22 09:52:00
4:13 AM,17.6,15.8,93,29.88,7.0,North,12.7,-,N/A,Snow,Light Snow,10,2013-02-22 10:13:00
4:33 AM,17.6,15.8,93,29.88,3.0,North,12.7,-,N/A,Snow,Light Snow,360,2013-02-22 10:33:00
4:52 AM,17.6,15.8,93,29.88,1.2,North,12.7,-,N/A,Snow,Snow,10,2013-02-22 10:52:00
5:13 AM,17.6,15.8,93,29.89,2.0,North,11.5,-,N/A,Snow,Light Snow,360,2013-02-22 11:13:00
5:32 AM,17.6,15.8,93,29.88,2.5,North,10.4,-,N/A,Snow,Light Snow,360,2013-02-22 11:32:00
6:12 AM,17.6,15.8,93,29.88,4.0,North,13.8,-,N/A,Snow,Light Snow,360,2013-02-22 12:12:00
6:32 AM,17.6,15.8,93,29.87,5.0,North,13.8,-,N/A,Snow,Light Snow,350,2013-02-22 12:32:00
6:53 AM,17.6,15.8,93,29.87,5.0,North,13.8,-,N/A,Snow,Light Snow,360,2013-02-22 12:53:00
7:12 AM,17.6,15.8,93,29.87,7.0,North,13.8,-,N/A,Snow,Light Snow,360,2013-02-22 13:12:00
7:32 AM,17.6,15.8,93,29.87,10.0,North,13.8,-,N/A,Snow,Light Snow,350,2013-02-22 13:32:00
7:53 AM,17.6,15.8,93,29.87,10.0,North,15.0,-,N/A,Snow,Light Snow,350,2013-02-22 13:53:00
8:12 AM,17.6,15.8,93,29.87,7.0,North,13.8,-,N/A,Snow,Light Snow,350,2013-02-22 14:12:00
8:32 AM,17.6,15.8,93,29.87,10.0,North,13.8,-,N/A,Snow,Light Snow,350,2013-02-22 14:32:00
8:53 AM,19.4,15.8,86,29.87,10.0,NNW,15.0,-,N/A,Snow,Light Snow,340,2013-02-22 14:53:00
9:12 AM,19.4,17.6,93,29.87,5.0,NNW,17.3,-,N/A,Snow,Light Snow,340,2013-02-22 15:12:00
9:32 AM,19.4,17.6,93,29.87,7.0,North,15.0,-,N/A,Snow,Light Snow,350,2013-02-22 15:32:00
9:53 AM,21.2,17.6,86,29.88,7.0,North,15.0,-,N/A,Snow,Light Snow,350,2013-02-22 15:53:00
10:12 AM,21.2,17.6,86,29.88,4.0,North,13.8,-,N/A,Snow,Light Snow,350,2013-02-22 16:12:00
10:32 AM,21.2,17.6,86,29.88,2.5,North,12.7,-,N/A,Snow,Light Snow,350,2013-02-22 16:32:00
10:53 AM,21.2,17.6,86,29.89,3.0,NNW,11.5,-,N/A,Snow,Light Snow,340,2013-02-22 16:53:00
11:12 AM,21.2,17.6,86,29.88,5.0,NNW,11.5,-,N/A,Snow,Light Snow,340,2013-02-22 17:12:00
11:32 AM,21.2,17.6,86,29.87,4.0,NNW,11.5,-,N/A,Snow,Light Snow,340,2013-02-22 17:32:00
11:53 AM,23.0,17.6,80,29.87,10.0,NNW,11.5,-,N/A,Snow,Light Snow,340,2013-02-22 17:53:00
12:12 PM,21.2,19.4,93,29.87,10.0,NNW,10.4,-,N/A,Snow,Light Snow,330,2013-02-22 18:12:00
12:32 PM,21.2,17.6,86,29.87,10.0,NW,10.4,-,N/A,,Overcast,320,2013-02-22 18:32:00
12:52 PM,21.2,17.6,86,29.87,10.0,NW,9.2,-,N/A,,Overcast,320,2013-02-22 18:52:00
1:13 PM,21.2,17.6,86,29.87,10.0,NW,9.2,-,N/A,,Overcast,310,2013-02-22 19:13:00
1:33 PM,21.2,17.6,86,29.87,10.0,WNW,13.8,-,N/A,,Overcast,290,2013-02-22 19:33:00
1:52 PM,21.2,17.6,86,29.88,10.0,WNW,12.7,-,N/A,,Overcast,300,2013-02-22 19:52:00
2:13 PM,21.2,17.6,86,29.88,7.0,WNW,12.7,-,N/A,,Overcast,290,2013-02-22 20:13:00
2:33 PM,21.2,17.6,86,29.88,2.0,NW,10.4,-,N/A,Snow,Light Snow,310,2013-02-22 20:33:00
2:52 PM,23.0,17.6,80,29.88,1.8,NW,10.4,-,N/A,Snow,Light Snow,310,2013-02-22 20:52:00
3:13 PM,21.2,19.4,93,29.88,1.5,WNW,13.8,-,N/A,Snow,Light Snow,290,2013-02-22 21:13:00
3:33 PM,23.0,17.6,80,29.88,3.0,WNW,11.5,-,N/A,Snow,Light Snow,300,2013-02-22 21:33:00
3:52 PM,21.2,17.6,86,29.88,10.0,NW,12.7,-,N/A,Snow,Light Snow,310,2013-02-22 21:52:00
4:13 PM,21.2,19.4,93,29.88,10.0,WNW,13.8,-,N/A,Snow,Light Snow,290,2013-02-22 22:13:00
4:33 PM,21.2,17.6,86,29.89,10.0,WNW,12.7,18.4,N/A,Snow,Light Snow,300,2013-02-22 22:33:00
4:52 PM,19.4,15.8,86,29.89,10.0,WNW,12.7,-,N/A,Snow,Light Snow,300,2013-02-22 22:52:00
5:12 PM,19.4,17.6,93,29.90,7.0,WNW,6.9,-,N/A,Snow,Light Snow,300,2013-02-22 23:12:00
5:33 PM,19.4,17.6,93,29.90,3.0,WNW,9.2,-,N/A,Snow,Light Snow,300,2013-02-22 23:33:00
5:52 PM,19.4,15.8,86,29.90,7.0,WNW,9.2,-,N/A,Snow,Light Snow,300,2013-02-22 23:52:00
6:13 PM,19.4,15.8,86,29.90,7.0,NW,6.9,-,N/A,Snow,Light Snow,310,2013-02-23 00:13:00
6:32 PM,17.6,15.8,93,29.90,7.0,WNW,4.6,-,N/A,Snow,Light Snow,300,2013-02-23 00:32:00
6:52 PM,19.4,17.6,93,29.90,7.0,WNW,10.4,-,N/A,Snow,Light Snow,290,2013-02-23 00:52:00
7:13 PM,17.6,15.8,93,29.90,10.0,NW,6.9,-,N/A,Snow,Light Snow,310,2013-02-23 01:13:00
7:32 PM,17.6,15.8,93,29.90,10.0,WNW,8.1,-,N/A,Snow,Light Snow,300,2013-02-23 01:32:00
7:53 PM,17.6,15.8,93,29.90,10.0,WNW,9.2,-,N/A,Snow,Light Snow,290,2013-02-23 01:53:00
8:13 PM,17.6,15.8,93,29.90,10.0,WNW,9.2,-,N/A,Snow,Light Snow,290,2013-02-23 02:13:00
8:32 PM,15.8,12.2,86,29.90,10.0,WNW,8.1,-,N/A,,Scattered Clouds,290,2013-02-23 02:32:00
8:53 PM,15.8,14.0,93,29.90,10.0,WNW,8.1,-,N/A,,Overcast,290,2013-02-23 02:53:00
9:13 PM,17.6,15.8,93,29.90,10.0,WNW,8.1,-,N/A,,Overcast,290,2013-02-23 03:13:00
9:32 PM,17.6,15.8,93,29.89,10.0,WNW,9.2,-,N/A,,Overcast,290,2013-02-23 03:32:00
9:53 PM,17.6,15.8,93,29.89,10.0,West,6.9,-,N/A,,Overcast,280,2013-02-23 03:53:00
10:13 PM,15.8,14.0,93,29.88,10.0,WNW,10.4,-,N/A,,Overcast,290,2013-02-23 04:13:00
10:32 PM,15.8,14.0,93,29.88,10.0,West,9.2,-,N/A,Snow,Light Snow,280,2013-02-23 04:32:00
10:53 PM,15.8,12.2,86,29.89,10.0,West,6.9,-,N/A,Snow,Light Snow,280,2013-02-23 04:53:00
11:13 PM,15.8,12.2,86,29.89,10.0,West,8.1,-,N/A,,Overcast,270,2013-02-23 05:13:00
11:32 PM,15.8,12.2,86,29.90,10.0,West,6.9,-,N/A,,Overcast,280,2013-02-23 05:32:00
11:52 PM,15.8,14.0,93,29.89,10.0,West,5.8,-,N/A,Snow,Light Snow,260,2013-02-23 05:52:00